This demonstration page uses our WeatherBlox Daily Observations layout. Learn more.

38.89511, -77.03637

Hourly Observations for March 17, 2015

Temp ( °F °C ) Dew Point ( °F °C ) Humidity (%) Winds ( mph kmh ) Pressure ( in mb ) Visibility ( mi km ) Precip ( " mm )
12:52 am 00:52 Cloudy 51 10.6 39 3.9 64 64 S 7 11 29.83 1010 10 16.0934 0 0
1:52 am 01:52 Mostly Cloudy 50 10 39 3.9 66 66 S 8 13 29.79 1009 10 16.0934 0 0
2:52 am 02:52 Cloudy 49 9.4 40 4.4 71 71 S 7 11 29.76 1008 10 16.0934 0 0
3:52 am 03:52 Mostly Cloudy 49 9.4 40 4.4 71 71 S 8 13 29.75 1008 10 16.0934 0 0
4:52 am 04:52 Cloudy 50 10 40 4.4 68 68 S 8 13 29.72 1007 10 16.0934 0 0
5:52 am 05:52 Cloudy 49 9.4 40 4.4 71 71 S 10 17 29.7 1006 10 16.0934 0 0
6:52 am 06:52 Mostly Cloudy 47 8.3 39 3.9 74 74 SSW 6 9 29.69 1006 10 16.0934 0 0
7:52 am 07:52 Mostly Cloudy 49 9.4 40 4.4 71 71 S 7 11 29.68 1005 10 16.0934 0 0
8:52 am 08:52 Mostly Cloudy 50 10 41 5 71 71 S 7 11 29.68 1005 10 16.0934 0 0
9:52 am 09:52 Mostly Cloudy 54 12.2 42 5.6 64 64 SW 6 9 29.69 1005 10 16.0934 0 0
10:52 am 10:52 Cloudy 71 21.7 47 8.3 42 42 WNW 13 20 29.69 1005 10 16.0934 0 0
11:37 am 11:37 Mostly Cloudy 70 21 46 8 43 43 WNW 16 26 29.68 1005 10 16.0934 0 0
11:52 am 11:52 Mostly Cloudy 69 20.6 47 8.3 45 45 WNW 14 22 29.69 1005 10 16.0934 0 0
12:52 pm 12:52 Cloudy 71 21.7 46 7.8 41 41 WNW 15 24 29.69 1005 10 16.0934 0 0
1:52 pm 13:52 Cloudy 68 20 44 6.7 42 42 NW 17 28 29.71 1006 10 16.0934 0 0
2:52 pm 14:52 Mostly Cloudy 69 20.6 42 5.6 38 38 NW 13 20 29.73 1007 10 16.0934 0 0
3:52 pm 15:52 Mostly Cloudy 67 19.4 35 1.7 31 31 NNW 22 35 29.74 1007 10 16.0934 0 0
4:52 pm 16:52 Mostly Cloudy 66 18.9 32 0 28 28 WNW 21 33 29.77 1008 10 16.0934 0 0
5:52 pm 17:52 Partly Cloudy 60 15.6 29 -1.7 31 31 NW 21 33 29.82 1010 10 16.0934 0 0
6:52 pm 18:52 Partly Cloudy 55 12.8 26 -3.3 33 33 NNW 25 41 29.87 1012 10 16.0934 0 0
7:52 pm 19:52 Partly Cloudy 52 11.1 22 -5.6 31 31 NNW 29 46 29.93 1013 10 16.0934 0 0
8:52 pm 20:52 Mostly Clear 49 9.4 20 -6.7 32 32 NW 18 30 29.98 1015 10 16.0934 0 0
9:52 pm 21:52 Mostly Clear 48 8.9 18 -7.8 30 30 NNW 17 28 30.02 1017 10 16.0934 0 0
10:52 pm 22:52 Clear 45 7.2 14 -10 29 29 NNW 16 26 30.06 1018 10 16.0934 0 0
11:52 pm 23:52 Clear 42 5.6 11 -11.7 28 28 NW 21 33 30.09 1019 10 16.0934 0 0

Powered by AerisWeather